TITAN 3C TRANSTAGE DEB, 2789

Orbit data source: Space-Track

TITAN 3C TRANSTAGE DEB, 2789 is space debris in LEO originally from a launch on Fri, 15 Oct 1965 UTC launched from the Air Force Eastern Test Range (AFETR). Debris objects in space refer to the collection of defunct objects orbiting the Earth. Examples of debris include non-operational satellites, rocket bodies, and fragments generated from explosions, collisions, or faulty payload assembly.

Loading next visibility...
Identifier
2789, 1965-082KR
Orbit
LEO
Last TLE update
22 hours ago
Origin
Manufacturer
Unknown
Mission
Spacecraft
Bus & Motor
Unknown
Mass
Unknown
Launch date (UTC)
1965-10-15 (60 years ago)
Launch vehicle
Unknown
Launch site
Air Force Eastern Test Range (AFETR)
Object type
Payload
Rocket body
Debris
Shape & HBR
Unknown
Radar Cross Section
Small (<0.1 m²)

Expand to show TLE details & history

TLE from 22 hours ago
0 TITAN 3C TRANSTAGE DEB
1 02789U 65082KR  25183.30122941  .00032230  00000-0  12927-2 0  9991
2 02789  32.2690 166.2386 0033647 226.1512 133.6371 15.23358036 27979
Epoch: 2025-07-02T07:13Z
TLE epoch observation values (Epoch: 2025-07-02T07:13:46.221Z)
Latitude
0.00003°
Longitude
137.21176°
Altitude
510.344 km
Speed
7.602 km/s
True Right ascension
11h 04m 57s
True Declination
0° 00' 00"
Sunlit
Object was in daylight at epoch
Visualization orbit readout
Latitude
-32.37311°
Longitude
44.51443°
Altitude
485.018 km
Speed
7.634 km/s
Apparent Right ascension
04h 46m 26s
Apparent Declination
-35° 50' 56"
Sunlit
Object is in daylight
Visualization observer readout
Local Sidereal Time
16:37:16
Azimuth
335.342° NNW
Elevation
-85.55°
Doppler factor
1
Orbital elements
Apogee altitude
522.535 km
Perigee altitude
476.253 km
Semi-major axis
6,877.531 km
Eccentricity
0.00336
Inclination
32.269°
RAAN
166.2386°
Arg. of periapsis
226.1512°
True anomaly
Unknown
Mean anomaly
133.6371°
Eccentric anomaly
Unknown
Mean motion
3.80535 °/min
Orbital period
94.6 mins
BSTAR
0.0012927
Loading maneuver chart data...
Loading SW <> Apogee altitude chart data...

TITAN 3C TRANSTAGE DEB Visibility forecast

Observer location: undefined°, undefined°

Span
Click to sort rows by Start time (UTC) header in descending order
Start Az.
Max El. time (UTC)
Max El. Az.
Max El.
End time (UTC)
End Az.
6 mins2025-07-03 05:37:51.720Z238.929° WSW2025-07-03 05:40:51.720Z184.079° SSW22.582°2025-07-03 05:43:51.720Z132.25° SE
5 mins2025-07-04 03:34:51.720Z213.221° SW2025-07-04 03:36:51.720Z171.118° S22.47°2025-07-04 03:39:51.720Z119.26° SE
|